Regional Weather Roundup
Issued by NWS Grand Forks, ND

Home | Current Version | Previous Version | Graphics & Text | Print | Product List | Glossary On
Versions: 1 2 3 4 5 6 7 8 9 10 11 12 13 14 15 16 17 18 19 20 21 22 23 24 25 26 27 28 29 30 31 32 33 34 35 36 37 38 39 40 41 42 43 44 45 46 47 48 49 50
442
ASUS43 KFGF 092031
RWRFGF
PRAIRIE TO PINES  WEATHER ROUNDUP
NATIONAL WEATHER SERVICE EASTERN NORTH DAKOTA/GRAND FORKS ND
200 PM CST FRI DEC 09 2016

 **SATELLITE DATA USED TO AUGMENT SKY COVER AT AUTOMATED STATIONS**
 *****  WEATHER ACROSS EASTERN NORTH DAKOTA  *****

CITY           SKY/WX    TMP DP  RH WIND       PRES   REMARKS
GRAND FORKS    MOSUNNY    2  -8  63 NW9       30.57S WCI -13
GRAND FRKS AFB SUNNY      1 -10  60 NW7       30.56F WCI -11
DEVILS LAKE    PTSUNNY   -6 -11  77 W12       30.52F WCI -24
FARGO          PTSUNNY    7  -2  66 NW10      30.56S WCI  -8
WAHPETON ARPT  CLOUDY     9   0  66 N10       30.55S WCI  -6
$$

 ***** WEATHER ACROSS CENTRAL AND WESTERN NORTH DAKOTA  *****

CITY           SKY/WX    TMP DP  RH WIND       PRES   REMARKS
BISMARCK       MOSUNNY   -1  -7  75 NW9       30.54F WCI -16
MINOT          SUNNY     -9 -15  75 NW12      30.53F WCI -28
JAMESTOWN      SUNNY     -2  -8  76 NW15      30.52F WCI -22
MINOT AFB      SUNNY    -10 -17  74 NW10      30.53F WCI -29
GARRISON         N/A     -6 -12  75 NW12      30.51F WCI -25
WILLISTON      SUNNY     -3 -11  68 CALM      30.55F
DICKINSON      SUNNY     -6 -11  79 W6        30.43F WCI -19
HETTINGER      MOSUNNY   -1  -7  75 N5        30.43F WCI -11
$$

 *****  OTHER AIRPORT OBSERVATIONS IN OUR AREA  *****

CITY           SKY/WX    TMP DP  RH WIND       PRES   REMARKS
WALHALLA         N/A      0   0 100 NW8       30.56S WCI -15
GRAFTON AIRPOR FAIR       0  -9  65 W10       30.59S WCI -17
VALLEY CITY AR FAIR       0  -4  85 NW12      30.53F WCI -18
CANDO          CLOUDY    -6 -11  77 NW10      30.54S WCI -23
CAVALIER APRT    N/A      0  -8  71 NW6       30.56F WCI -12
GWINNER        MOCLDY     9   1  72 NW13      30.54S WCI  -7
SHEYENNE NWR     N/A      7  -4  59 N8        29.95S WCI  -6
ROLLA          CLOUDY    -8 -13  77 N10       30.49S WCI -26
 ***** THE ABOVE OBSERVATIONS ARE NON NWS ARE NOT QUALITY
       CONTROLLED AND MAY MIS-REPORT RAIN FOR SNOW...
$$

  *****  WEATHER ACROSS NORTHERN MINNESOTA  *****

CITY           SKY/WX    TMP DP  RH WIND       PRES   REMARKS
FLAG ISLAND    CLOUDY     5  -2  72 W10       30.46S WCI -10
WARROAD        MOSUNNY    3  -6  66 W8        30.50R WCI -10
ROSEAU         CLOUDY     3  -4  72 NW8       30.51S WCI -10
HALLOCK        CLOUDY     1  -4  78 NW6       30.55S WCI -10
THF RVR FALLS  CLOUDY     5  -1  76 W10       30.52F WCI -10
BAUDETTE       SUNNY      4  -6  63 W10       30.45F WCI -11
WASKISH        CLOUDY     9   0  66 NW10      30.46F WCI  -6
CROOKSTON      CLOUDY     3   0  85 NW12      30.56S WCI -13
STEPHEN NDAWN    N/A      1  -4  78 NW7         N/A  WCI -11
GREENBUSH NDAW   N/A      1  -2  85 W9          N/A  WCI -14
$$
  *****  WEATHER ACROSS CENTRAL AND WEST MINNESOTA  *****

CITY           SKY/WX    TMP DP  RH WIND       PRES   REMARKS
FOSSTON        CLOUDY     7   0  72 W8        30.49S WCI  -6
BEMIDJI        CLOUDY     7  -1  71 W12       30.45S WCI  -9
PARK RAPIDS    CLOUDY     9  -2  61 W12       30.44F WCI  -6
ELBOW LAKE     CLOUDY     5  -1  77 NW7       30.52F HAZE    WCI  -7
WADENA         LGT SNOW   7   1  78 NW9       30.46S WCI  -7
DETROIT LAKES  PTSUNNY    5   1  85 NW8       30.49S HAZE    WCI  -8
MOORHEAD       PTSUNNY    3  -2  78 NW8       30.56S WCI -10
FERGUS FALLS   CLOUDY     5   0  78 NW12      30.57S WCI -11
MORRIS MN      MOSUNNY    7   0  72 NW9       30.51F WCI  -7
STAPLES        CLOUDY     9   0  66 W7        30.46F WCI  -3
$$
  *****  WEATHER ELSEWHERE ACROSS MINNESOTA  *****

CITY           SKY/WX    TMP DP  RH WIND       PRES   REMARKS
DULUTH         CLOUDY     9   0  67 NW14      30.41F WCI  -7
INTRNTL FALLS  CLOUDY     6  -3  66 W8        30.45S HAZE    WCI  -7
ELY            CLOUDY     5   0  78 W12       30.40S WCI -11
CLOQUET        CLOUDY    10   1  67 NW7       30.43S WCI   0
WHEATON        CLOUDY    10   3  72 NW9       30.56F WCI  -2
BRAINERD       CLOUDY    10   0  63 W9        30.47F WCI  -3
HIBBING        LGT SNOW   6  -3  66 NW13      30.43F WCI -10
ALEXANDRIA     LGT SNOW   6   0  76 NW10      30.48F WCI  -9
SAINT CLOUD    CLOUDY    13   5  70 W9        30.49F WCI   1
MINNEAPOLIS    PTSUNNY   19   7  59 W9        30.50F WCI   8
$$

  *****  WEATHER ACROSS SOUTH DAKOTA  *****

CITY           SKY/WX    TMP DP  RH WIND       PRES   REMARKS
SIOUX FALLS    CLOUDY    14   5  67 CALM      30.49F
BROOKINGS      CLOUDY     8   2  76 NW7       30.47F WCI  -3
WATERTOWN      CLOUDY     5  -2  72 N9        30.47F WCI  -9
HURON          LGT SNOW   7   0  73 NE9       30.52F WCI  -7
SISSETON         N/A      7  -1  70 NW12      30.53F WCI  -8
ABERDEEN       CLOUDY     8  -4  58 N8        30.54F WCI  -4
MITCHELL       LGT SNOW  11   4  73 N9        30.52F WCI  -2
PIERRE         LGT SNOW   6  -1  73 NE10      30.47R WCI  -9
MOBRIDGE       CLOUDY     2  -5  72 N10       30.49R HAZE    WCI -14
RAPID CITY     LGT SNOW   2  -3  80 N10       30.34S WCI -14
$$

  *****  SOME WEATHER IN NEARBY STATES *****

CITY           SKY/WX    TMP DP  RH WIND       PRES   REMARKS
GLASGOW MT     SUNNY     -1  -6  79 SE9       30.46F WCI -16
GREAT FALLS MT CLOUDY     1  -7  68 SE5       30.21F WCI  -9
CHEYENNE WY    SUNNY     46  25  43 W15G21    30.05S
SCOTTSBLUFF NE SUNNY     27  11  51 NE8       30.18R WCI  19
OMAHA NE       CLOUDY    20   8  60 SE3       30.55F
DES MOINES IA  PTSUNNY   22  10  60 SW5       30.54F WCI  16
DAVENPORT IA   MOSUNNY   22  13  68 W6        30.54S WCI  14
CHICAGO IL     FLURRIES  25  13  60 W12       30.49S WCI  14
EAU CLAIRE WI  CLOUDY    18  10  71 W12       30.48S WCI   5
LA CROSSE WI   SUNNY     25   9  50 NW9       30.51F WCI  15
$$

  *****  SOME NATIONAL WEATHER *****

CITY           SKY/WX    TMP DP  RH WIND       PRES   REMARKS
LA GUARDIA NY  PTSUNNY   41  17  38 NW24G35   30.12R
RALEIGH NC     SUNNY     41  12  30 VRB6      30.38S
ATLANTA GA     SUNNY     43  15  32 NW16      30.40F
NEW ORLEANS LA MOSUNNY   49  25  39 N8        30.47F
OKLAHOMA CITY  CLOUDY    32  12  43 S13       30.48F WCI  22
ALBUQUERQUE NM MOSUNNY   41  27  57 SW6       30.32F
SALT LAKE CITY CLOUDY    40  31  70 NW3       30.18F
LOS ANGELES CA PTSUNNY   62  52  69 SE5       30.23F
BOISE ID       CLOUDY    30  27  88 W5        30.12F FOG
SEATTLE WA     CLOUDY    33  31  92 SE17      29.96F WCI  22
$$

*** WEATHER ACROSS MANITOBA...SASKATCHEWAN AND ONTARIO ***
                ***ONTARIO***

CITY           SKY/WX    TMP DP  RH WIND       PRES   REMARKS
GERALDTON      FLURRIES   9   0  66 W5        30.32S WCI   0
THUNDER BAY    PTSUNNY   18   3  53 NW6       30.39F WCI   9
SIOUX LOOKOUT  FLURRIES   7   1  78 NW7       30.36F WCI  -5
TORONTO        PTSUNNY   28  12  50 NW14G21   30.24R WCI  17
BIG TROUT LK   FLURRIES   0  -6  78 NW9       30.40R WCI -16
PICKLE LAKE    FLURRIES   1  -6  71 W7        30.34S WCI -11
DRYDEN         FLURRIES   7   1  78 NW7       30.37S WCI  -5
KENORA         LGT SNOW   5   0  78 W7        30.41F WCI  -7
$$
                *** MANITOBA***

CITY           SKY/WX    TMP DP  RH WIND       PRES   REMARKS
BRANDON        FLURRIES  -4 -11  71 W12       30.54S WCI -22
DAUPHIN        SUNNY     -6 -15  65 W9        30.58F WCI -22
ISLAND LAKE    FLURRIES -11 -17  77 NW6       30.51S WCI -25
PILOT MOUND      N/A     -8 -13  77 NW7         N/A  WCI -22
THE PAS        FLURRIES  -6 -11  77 W10       30.59F WCI -23
THOMPSON       FLURRIES  -6 -11  77 W6        30.57S WCI -18
WINNIPEG       PTSUNNY    1  -6  71 NW12      30.54F WCI -15
LYNN LAKE      FLURRIES  -6  -9  84 W5        30.55F WCI -17
CHURCHILL      PTCLDY    -6 -11  77 NW18G26   30.47S WCI -29
GILLAM         MOCLDY    -2  -8  78 W9        30.50F WCI -18
$$
                ***SASKATCHEWAN***

CITY           SKY/WX    TMP DP  RH WIND       PRES   REMARKS
ESTEVAN        MOSUNNY  -13 -18  77 NW8       30.53F WCI -30
KINDERSLEY     MOSUNNY   -6 -15  65 CALM      30.46F
LLOYDMINSTER   CRYSTALS  -9 -13  84 S5        30.48F WCI -21
PRINCE ALBERT  SUNNY     -6 -15  65 NW5       30.59F WCI -17
REGINA         MOSUNNY   -8 -11  84 NW7       30.53F FOG     WCI -22
YORKTON        SUNNY     -6 -13  71 W7        30.53F WCI -20
N. BATTLEFORD  SUNNY    -11 -17  77 N3        30.57F
LA RONGE       MOSUNNY  -11 -18  70 W5        30.61F WCI -23
SASKATOON      CRYSTALS  -6 -15  65 VRB2      30.58F
SWIFT CURRENT  CLOUDY    -6  -9  84 E3        30.40F
$$
NOTE: THESE ARE AUTOMATED STATIONS WITH LIMITED QUALITY CONTROL
      "FAIR" INDICATES FEW OR NO CLOUDS BELOW 12,000 FEET WITH NO
      SIGNIFICANT WEATHER AND/OR OBSTRUCTIONS TO VISIBILITY.
      SKY/WX - SKY CONDITION AND SIGNIFICANT WEATHER.
      TMP - AIR TEMPERATURE.    DP   - DEWPOINT TEMPERATURE.
      RH  - RELATIVE HUMIDITY.  PRES - PRESSURE.
      HX  - HEAT INDEX.         WCI  - WIND CHILL INDEX.
$




USA.gov is the U.S. government's official web portal to all federal, state and local government web resources and services.